Regional Weather Roundup
Issued by NWS

Home | Current Version | Previous Version | Text Only | Print | Product List | Glossary Off
Versions: 1 2 3 4 5 6 7 8 9 10 11 12 13 14 15 16 17 18 19 20 21 22 23 24 25 26 27 28 29 30 31 32 33 34 35 36 37 38 39 40 41 42 43 44 45 46 47 48 49 50

000
ASUS43 KDTX 240010
RWRMI
MICHIGAN HOURLY REGIONAL WEATHER ROUNDUP
NATIONAL WEATHER SERVICE DETROIT/PONTIAC MI
800 PM EDT THU OCT 23 2014

NOTE: "FAIR" INDICATES FEW OR NO CLOUDS BELOW 12,000 FEET WITH NO
SIGNIFICANT WEATHER AND/OR OBSTRUCTION TO VISIBILITY.

MIZ047>049-052>055-059>063-066>070-074>076-081>083-240100-
SOUTHEAST LOWER MICHIGAN

CITY           SKY/WX    TMP DP  RH WIND       PRES   REMARKS
ADRIAN         PTCLDY    47  37  68 SW3       30.12F
6HR MIN TEMP:  47; 6HR MAX TEMP:  58;

ALMA           MOCLDY    45  38  78 CALM      30.11S
ANN ARBOR      CLEAR     40  35  83 CALM      30.10F
BAD AXE        PTCLDY    36  35  97 CALM      30.12S
6HR MIN TEMP:  36; 6HR MAX TEMP:  50;

CARO           PTCLDY    37  35  92 CALM      30.10F
DETROIT CITY   CLEAR     51  40  65 CALM      30.12S
6HR MIN TEMP:  51; 6HR MAX TEMP:  61;

DETROIT        MOCLDY    50  42  74 SE5       30.11F
6HR MIN TEMP:  50; 6HR MAX TEMP:  59;

FLINT          PTCLDY    44  36  73 W3        30.12F
6HR MIN TEMP:  42; 6HR MAX TEMP:  59;

GROSSE ILE     FOG       46  43  87 CALM      30.10F VSB 1/2
HILLSDALE      PTCLDY    40  37  90 CALM      30.12S
6HR MIN TEMP:  39; 6HR MAX TEMP:  59;

HOWELL         PTCLDY    46  37  70 W3        30.10S
6HR MIN TEMP:  45; 6HR MAX TEMP:  56;


CITY           SKY/WX    TMP DP  RH WIND       PRES   REMARKS
JACKSON        PTCLDY    43  36  76 W3        30.12R
6HR MIN TEMP:  43; 6HR MAX TEMP:  57;

LAMBERTVILLE   CLEAR     43  37  81 CALM      30.12F HAZE
LANSING        MOCLDY    44  35  70 CALM      30.12S
6HR MIN TEMP:  44; 6HR MAX TEMP:  57;

LAPEER         FAIR      37  35  92 CALM      30.11F
MASON          PTCLDY    44  37  77 CALM      30.11S
MONROE         CLEAR     45  43  93 CALM      30.10F
MT. CLEMENS    PTCLDY    47  42  85 CALM      30.09S
6HR MIN TEMP:  46; 6HR MAX TEMP:  60;

PONTIAC        PTCLDY    44  36  73 CALM      30.09F
6HR MIN TEMP:  43; 6HR MAX TEMP:  58;

PORT HOPE        N/A     39  37  92 CALM      30.10F
6HR MIN TEMP:  39; 6HR MAX TEMP:  51;

PORT HURON     CLEAR     41  39  93 CALM      30.12F
TRI CITIES     PTCLDY    46  36  68 CALM      30.12S
6HR MIN TEMP:  46; 6HR MAX TEMP:  53;

TROY           CLEAR     51  37  57 CALM      30.12F
SAGINAW HB     MOCLDY    43  37  81 CALM      30.11R
$$
MIZ043>046-050>051-056>058-064>065-071>073-077>080-240100-
SOUTHWEST LOWER MICHIGAN

CITY           SKY/WX    TMP DP  RH WIND       PRES   REMARKS
BATTLE CREEK   MOCLDY    49  37  63 W8        30.12S
6HR MIN TEMP:  49; 6HR MAX TEMP:  58;

BENTON HARBOR  CLOUDY    50  41  71 SE5       30.09S
6HR MIN TEMP:  48; 6HR MAX TEMP:  58;

BIG RAPIDS     MOCLDY    46  44  93 SW3       30.09S
6HR MIN TEMP:  45; 6HR MAX TEMP:  56;

COLDWATER      MOCLDY    46  41  83 CALM      30.11F
6HR MIN TEMP:  45; 6HR MAX TEMP:  58;

FREMONT        FAIR      49  42  78 CALM      30.09F
HOLLAND        CLOUDY    50  44  80 SW3       30.11R
6HR MIN TEMP:  49; 6HR MAX TEMP:  58;

GRAND RAPIDS   CLOUDY    50  39  66 CALM      30.10S
6HR MIN TEMP:  49; 6HR MAX TEMP:  59;

IONIA          FAIR      44  38  77 SE5       30.10S
KALAMAZOO      MOCLDY    50  39  66 SE3       30.10F
6HR MIN TEMP:  49; 6HR MAX TEMP:  59;

LUDINGTON      CLOUDY    49  44  81 S5        30.09F
6HR MIN TEMP:  49; 6HR MAX TEMP:  57;

MARSHALL       MOCLDY    43  36  74 CALM      30.11S
MOUNT PLEASANT MOCLDY    42  38  84 CALM      30.10R
6HR MIN TEMP:  41; 6HR MAX TEMP:  56;

MUSKEGON       CLOUDY    50  43  77 CALM      30.10S
6HR MIN TEMP:  49; 6HR MAX TEMP:  57;

SOUTH HAVEN    CLOUDY    48  45  88 E5        30.09F
$$
MIZ016>042-240100-
NORTHERN LOWER MICHIGAN

CITY           SKY/WX    TMP DP  RH WIND       PRES   REMARKS
ALPENA         CLEAR     40  39  97 CALM      30.09F
6HR MIN TEMP:  40; 6HR MAX TEMP:  54;

BEAVER ISLAND  CLOUDY    44  42  93 CALM      30.07S
6HR MIN TEMP:  44; 6HR MAX TEMP:  55;

BELLAIRE       MOCLDY    43  39  86 CALM      30.07F
CADILLAC       MOCLDY    47  40  78 CALM      30.08S
CHARLEVOIX     CLOUDY    46  44  92 CALM      30.09F
6HR MIN TEMP:  46; 6HR MAX TEMP:  55;

FRANKFORT      CLOUDY    51  44  75 S3        30.08S
GAYLORD        PTCLDY    43  33  68 SW5       30.07F
6HR MIN TEMP:  43; 6HR MAX TEMP:  55;

GRAYLING       MOCLDY    37  34  92 CALM      30.09F
6HR MIN TEMP:  37; 6HR MAX TEMP:  54;

HARBOR SPRINGS PTCLDY    42  38  86 NE3       30.07F
HOUGHTON LAKE  MOCLDY    39  34  82 CALM      30.09F
6HR MIN TEMP:  36; 6HR MAX TEMP:  52;

OSCODA         CLEAR     36  35  94 SW5       30.10S WCI  32
PELLSTON       PTCLDY    38  37  97 CALM      30.08F
6HR MIN TEMP:  38; 6HR MAX TEMP:  57;

TRAVERSE CITY  CLOUDY    50  40  68 CALM      30.07R
6HR MIN TEMP:  48; 6HR MAX TEMP:  59;

$$
MIZ007>008-015-240100-
EASTERN UPPER MICHIGAN

CITY           SKY/WX    TMP DP  RH WIND       PRES   REMARKS
KINROSS        CLEAR     39  39 100 SE7       30.08F WCI  34
6HR MIN TEMP:  39; 6HR MAX TEMP:  54;

MACKINAC ISLAN CLEAR     44  39  82 E7        30.08S
6HR MIN TEMP:  44; 6HR MAX TEMP:  51;

NEWBERRY       CLOUDY    44  42  94 CALM      30.05S
S. S. MARIE    PTCLDY    44  34  67 SE3       30.07S
6HR MIN TEMP:  44; 6HR MAX TEMP:  54;

MUNISING         N/A     51  46  83 S10       30.00F
6HR MIN TEMP:  51; 6HR MAX TEMP:  58;

$$
MIZ004>006-011>014-085-240100-
CENTRAL UPPER MICHIGAN

CITY           SKY/WX    TMP DP  RH WIND       PRES   REMARKS
MANISTIQUE     CLOUDY    49  47  90 SW9       30.05S
ESCANABA       CLOUDY    48  46  93 S6        30.03S
6HR MIN TEMP:  48; 6HR MAX TEMP:  54; 6HR PCP:  0.01;

MENOMINEE      CLOUDY    48  45  87 CALM      30.04S
6HR MIN TEMP:  48; 6HR MAX TEMP:  55;

SAWYER-GWINN   DRIZZLE   46  45  93 S12       30.00S
$$
MIZ001>003-009>011-084-240100-
WESTERN UPPER MICHIGAN

CITY           SKY/WX    TMP DP  RH WIND       PRES   REMARKS
IRON MOUNTAIN  CLOUDY    45  44  97 S9        30.00F FOG
6HR MIN TEMP:  44; 6HR MAX TEMP:  46; 6HR PCP:  0.02;

HOUGHTON       CLOUDY    47  45  93 SW5       29.97R FOG
6HR MIN TEMP:  47; 6HR MAX TEMP:  48; 6HR PCP:  0.06;

COPPER HARBOR    N/A     48  45  89 SW8       29.97S
6HR MIN TEMP:  47; 6HR MAX TEMP:  51; 6HR PCP:  0.14;

IRONWOOD       CLOUDY    48  46  93 S6        29.96R
6HR MIN TEMP:  46; 6HR MAX TEMP:  48;

$$

ABBREVIATIONS USED IN REMARKS
   TC - TEMPERATURE IN CELSIUS
  WCI - WIND CHILL INDEX
   HX - HEAT INDEX
  VSB - VISIBILITY




USA.gov is the U.S. government's official web portal to all federal, state and local government web resources and services.